This is the latest recevied weather packets stored in our database for station/object W0AVQ. If no packets are shown the sender has not sent any weather packets the latest 10 day(s).
| Time | Temp. | Humidity | Pressure | Rain* | Wind** | Luminosity | Snow |
|---|---|---|---|---|---|---|---|
| 1777946604 | 22.78° C | 56% | 1009.1 hPa | 0 mm | - | 0 W/m² | - |
| 1777946301 | 22.78° C | 57% | 1009.2 hPa | 0 mm | - | 0 W/m² | - |
| 1777945999 | 22.78° C | 56% | 1008.9 hPa | 0 mm | - | 0 W/m² | - |
| 1777945696 | 22.78° C | 56% | 1008.9 hPa | 0 mm | - | 0 W/m² | - |
| 1777945393 | 22.78° C | 56% | 1009 hPa | 0 mm | - | 0 W/m² | - |
| 1777945089 | 22.78° C | 56% | 1008.8 hPa | 0 mm | - | 0 W/m² | - |
| 1777944786 | 22.78° C | 55% | 1008.9 hPa | 0 mm | - | 0 W/m² | - |
| 1777944485 | 22.78° C | 56% | 1008.9 hPa | 0 mm | - | 0 W/m² | - |
| 1777944182 | 22.78° C | 56% | 1009 hPa | 0 mm | - | 0 W/m² | - |
| 1777943878 | 22.78° C | 56% | 1008.9 hPa | 0 mm | - | 0 W/m² | - |
| 1777943575 | 22.78° C | 55% | 1008.6 hPa | 0 mm | - | 0 W/m² | - |
| 1777943270 | 22.78° C | 55% | 1008.7 hPa | 0 mm | - | 0 W/m² | - |
| 1777942967 | 22.78° C | 55% | 1008.5 hPa | 0 mm | - | 0 W/m² | - |
| 1777942663 | 23.33° C | 54% | 1008.4 hPa | 0 mm | - | 0 W/m² | - |
| 1777942361 | 23.33° C | 53% | 1008.4 hPa | 0 mm | - | 0 W/m² | - |
| 1777942058 | 23.33° C | 53% | 1008.6 hPa | 0 mm | - | 1 W/m² | - |
| 1777941754 | 23.89° C | 52% | 1008.4 hPa | 0 mm | - | 3 W/m² | - |
| 1777941451 | 23.89° C | 52% | 1008.4 hPa | 0 mm | - | 7 W/m² | - |
| 1777941149 | 23.89° C | 52% | 1008.5 hPa | 0 mm | - | 8 W/m² | - |
| 1777940845 | 23.89° C | 51% | 1008.3 hPa | 0 mm | - | 11 W/m² | - |
| 1777940543 | 23.89° C | 50% | 1008.2 hPa | 0 mm | - | 16 W/m² | - |
| 1777940240 | 23.89° C | 51% | 1008 hPa | 0 mm | - | 19 W/m² | - |
| 1777939937 | 23.89° C | 51% | 1008.2 hPa | 0 mm | - | 16 W/m² | - |
| 1777939634 | 24.44° C | 51% | 1008.3 hPa | 0 mm | - | 17 W/m² | - |
| 1777939332 | 25° C | 49% | 1008.2 hPa | 0 mm | - | 21 W/m² | - |
* Rain latest hour (hover to see other rain measurements)
** Current wind speed in m/s (hover to see current wind gust speed)